[[{"header":{"parameterUnit":"m.s-1","parameterCategory":1,"la1":30.2991,"la2":30.254,"lo1":-89.0895,"lo2":-89.0444,"dy":0.0017,"dx":0.0017,"nx":28,"ny":28,"refTime":"2023-08-17T03:00:00:Z","depth":0,"parameterNumber":2,"parameterNumberName":"U-component_of_WINDS"},"data":[0,0,0,0,0,0,0,0,0,0,0,0,0,0,0,0,0,0,0,0,0,0,0,0,0,0,0,0,0,0,0,0,0,0,0,0,0,0,0,0,0,0,0,0,0,0,0,0,0,0,0,0,0,0,0,0,0,0,1.6294,1.6294,0,1.6273,1.6273,1.6273,1.6217,1.6216,1.6215,1.6214,1.6193,1.6194,1.6194,0,0,0,0,0,0,0,0,0,0,0,0,0,1.6288,1.6289,1.6295,1.6294,1.6294,1.6273,1.6273,1.6273,1.6218,1.6216,1.6215,1.6213,1.6193,1.6194,1.6194,0,0,0,0,0,0,0,0,0,0,0,0,0,1.6281,1.6289,1.6295,1.6264,1.6261,1.6273,1.6273,1.6273,1.6218,1.6216,1.6214,1.6213,1.6193,1.6193,1.6194,1.6235,0,0,1.6197,1.6197,0,0,0,0,0,0,0,0,1.6282,1.6282,1.6269,1.6266,1.6263,1.6246,1.6263,1.626,1.6218,1.6234,1.6214,1.6212,1.6212,1.6211,1.6211,1.6234,1.6233,1.6197,1.6197,1.6198,1.6198,0,0,0,0,0,0,0,1.6282,1.6282,1.6286,1.6269,1.6265,1.6252,1.6249,1.6262,1.6234,1.6233,1.6229,1.6227,1.621,1.6211,1.621,1.6233,1.6197,1.6198,1.6198,1.6198,1.6286,1.6288,0,0,0,0,0,0,1.6287,1.6283,1.6287,1.6285,1.6268,1.6253,1.625,1.6253,1.6233,1.6228,1.6228,1.6224,1.621,1.6209,1.6209,1.6254,1.6198,1.6199,1.6199,1.6285,1.6287,1.6289,0,0,0,0,0,0,1.6287,1.6288,1.6288,1.6283,1.6282,1.6255,1.6259,1.6254,1.6254,1.623,1.6225,1.6234,1.6209,1.6208,1.6229,1.6252,1.6199,1.62,1.6282,1.6285,1.6288,1.6344,0,0,0,0,0,0,1.6287,1.6288,1.6303,1.6284,1.6283,1.6307,1.6261,1.6255,1.6255,1.625,1.6234,1.6229,1.6207,1.6228,1.6229,1.6252,1.62,1.628,1.6284,1.6287,1.634,1.6348,1.6356,0,0,0,0,0,1.6287,1.632,1.6304,1.6305,1.63,1.6308,1.6308,1.6281,1.6258,1.6272,1.6257,1.623,1.625,1.623,1.6232,1.6255,1.6278,1.6283,1.6287,1.6336,1.6347,1.6355,0,0,0,0,0,0,1.6344,1.6317,1.6299,1.6327,1.632,1.6299,1.6316,1.6293,1.6293,1.6288,1.6256,1.6253,1.6277,1.6269,1.6247,1.6293,1.626,1.6265,1.6297,1.6307,1.6315,1.6315,1.6201,0,0,0,0,0,1.6359,1.6368,1.6345,1.6371,1.6369,1.6344,1.6346,1.6327,1.6318,1.6315,1.6301,1.6295,1.6299,1.6303,1.6306,1.634,1.6334,1.6357,1.6365,1.6371,1.6375,1.639,1.6399,1.6302,1.6302,1.6302,0,0,1.6391,1.6378,1.6385,1.6382,1.6375,1.6384,1.6341,1.6353,1.6359,1.6317,1.6334,1.6325,1.6315,1.6342,1.6353,1.6335,1.6401,1.6377,1.6382,1.6382,1.6395,1.6404,1.6412,1.6305,1.6305,1.6304,0,0,1.6454,1.6446,1.6466,1.646,1.6449,1.6432,1.6437,1.642,1.6411,1.6428,1.6396,1.6404,1.6413,1.6407,1.6405,1.6467,1.6441,1.6469,1.6509,1.6525,1.6532,1.6539,1.6558,1.6566,1.6474,1.6474,1.6474,0,1.6495,1.6507,1.648,1.6493,1.6492,1.6455,1.6475,1.647,1.6461,1.6461,1.6443,1.6453,1.6444,1.6468,1.6483,1.6484,1.6487,1.6469,1.6533,1.654,1.6545,1.6563,1.6571,1.6477,1.6477,1.6476,1.6476,0,1.6557,1.6567,1.6585,1.6576,1.6577,1.6594,1.6569,1.6575,1.6556,1.6541,1.6559,1.6547,1.6547,1.6552,1.6534,1.6573,1.6562,1.6539,1.6504,1.6558,1.6574,1.6582,1.6482,1.648,1.6479,1.6479,0,0,1.6652,1.6629,1.6635,1.6631,1.6616,1.6623,1.6639,1.6638,1.6642,1.6638,1.6649,1.6658,1.6636,1.6635,1.6616,1.663,1.6677,1.6605,1.6604,1.6616,1.6717,1.6732,1.6741,1.6661,1.6662,1.6663,1.6717,0,1.6709,1.6732,1.6709,1.6737,1.6744,1.671,1.6723,1.6716,1.6703,1.6708,1.6694,1.67,1.6672,1.6671,1.6683,1.6668,1.6696,1.6665,1.667,1.667,1.667,1.675,1.6766,1.6816,1.6723,1.6724,1.6725,0,1.6777,1.6775,1.6804,1.6788,1.679,1.6802,1.6799,1.6804,1.6796,1.6786,1.6784,1.6761,1.6775,1.6744,1.6762,1.6741,1.6743,1.6736,1.6737,1.6734,1.6699,1.6746,1.6832,1.6839,1.6736,1.6735,1.6734,0,1.684,1.6845,1.6863,1.686,1.6842,1.6851,1.6844,1.6834,1.6835,1.6833,1.6833,1.6833,1.6832,1.6833,1.6811,1.6791,1.6832,1.6799,1.6822,1.6823,1.6829,1.6829,1.6914,1.6836,1.6836,1.6836,1.6835,0,1.6904,1.6922,1.689,1.6901,1.692,1.6894,1.6914,1.6904,1.6895,1.6903,1.6875,1.6883,1.6854,1.686,1.6843,1.6859,1.686,1.6852,1.6846,1.6852,1.6853,1.685,1.6845,1.6838,1.6837,1.6837,1.6836,0,1.6975,1.6955,1.6971,1.6953,1.6949,1.6964,1.6948,1.6957,1.6944,1.6954,1.6955,1.6933,1.6937,1.6916,1.6918,1.6907,1.693,1.6921,1.6933,1.6929,1.6952,1.6949,1.7036,1.7045,1.6964,1.6965,1.6966,0,1.7016,1.7029,1.7012,1.7015,1.7009,1.7015,1.7015,1.6991,1.6992,1.6984,1.6994,1.6996,1.6996,1.7005,1.6989,1.699,1.6979,1.7009,1.6978,1.6984,1.6976,1.6974,1.6974,1.7014,1.7016,1.7016,1.7017,0,1.7089,1.7078,1.708,1.7078,1.708,1.7077,1.7073,1.7077,1.7051,1.7054,1.7058,1.7059,1.706,1.7062,1.7059,1.7052,1.703,1.7028,1.7032,1.7037,1.7042,1.7037,1.6947,1.7025,1.7024,1.7023,1.7023,1.7023,1.7144,1.7153,1.7143,1.7145,1.714,1.7137,1.7144,1.7131,1.7134,1.7132,1.7118,1.7124,1.7116,1.711,1.7105,1.711,1.7096,1.7104,1.7105,1.7106,1.7109,1.7044,1.711,1.711,1.711,1.711,1.7109,0,1.7213,1.7204,1.7207,1.7202,1.7204,1.7184,1.7179,1.7182,1.7188,1.7182,1.7182,1.7187,1.7189,1.7174,1.7174,1.7181,1.717,1.7181,1.7179,1.7177,1.7124,1.7118,1.719,1.719,1.719,1.719,1.719,1.719,1.7248,1.7263,1.7251,1.7263,1.7255,1.726,1.7259,1.7256,1.725,1.7256,1.7258,1.7248,1.7238,1.7238,1.7239,1.7234,1.7234,1.7248,1.724,1.7189,1.7181,1.7174,1.7168,1.7249,1.725,1.7293,1.7294,1.7294]},{"header":{"parameterUnit":"m.s-1","parameterCategory":1,"la1":30.2991,"la2":30.254,"lo1":-89.0895,"lo2":-89.0444,"dy":0.0017,"dx":0.0017,"nx":28,"ny":28,"refTime":"2023-08-17T03:00:00:Z","depth":0,"parameterNumber":3,"parameterNumberName":"V-component_of_WINDS"},"data":[0,0,0,0,0,0,0,0,0,0,0,0,0,0,0,0,0,0,0,0,0,0,0,0,0,0,0,0,0,0,0,0,0,0,0,0,0,0,0,0,0,0,0,0,0,0,0,0,0,0,0,0,0,0,0,0,0,0,0.696,0.696,0,0.6965,0.6965,0.6965,0.6943,0.6942,0.6942,0.6941,0.6946,0.6947,0.6948,0,0,0,0,0,0,0,0,0,0,0,0,0,0.6931,0.6932,0.696,0.696,0.696,0.6965,0.6965,0.6965,0.6943,0.6942,0.6941,0.6941,0.6946,0.6947,0.6948,0,0,0,0,0,0,0,0,0,0,0,0,0,0.694,0.6932,0.696,0.695,0.6949,0.6965,0.6965,0.6965,0.6943,0.6942,0.6941,0.694,0.6946,0.6947,0.6948,0.6974,0,0,0.6951,0.6952,0,0,0,0,0,0,0,0,0.694,0.6942,0.6951,0.695,0.6949,0.6952,0.6956,0.6968,0.6943,0.6945,0.6941,0.694,0.6949,0.695,0.6953,0.6974,0.6975,0.6951,0.6952,0.6953,0.6953,0,0,0,0,0,0,0,0.6939,0.6941,0.6962,0.6951,0.695,0.6945,0.6945,0.6959,0.6953,0.6945,0.6943,0.6944,0.6948,0.6952,0.6953,0.6975,0.6951,0.6952,0.6953,0.6953,0.7016,0.7017,0,0,0,0,0,0,0.694,0.6941,0.6962,0.6962,0.6942,0.6946,0.6946,0.6952,0.6952,0.6951,0.6945,0.6943,0.695,0.6952,0.6953,0.6983,0.6953,0.6954,0.6954,0.7015,0.7017,0.7018,0,0,0,0,0,0,0.6939,0.6942,0.6961,0.6951,0.6953,0.6947,0.6954,0.6953,0.6956,0.6952,0.6951,0.695,0.695,0.6951,0.6969,0.6983,0.6954,0.6955,0.7014,0.7016,0.7017,0.7044,0,0,0,0,0,0,0.6939,0.6942,0.6952,0.6951,0.6954,0.6978,0.6955,0.6954,0.6958,0.6956,0.6956,0.6956,0.6949,0.6967,0.697,0.6984,0.6956,0.7013,0.7015,0.7017,0.7041,0.7046,0.7049,0,0,0,0,0,0.6938,0.696,0.6953,0.6956,0.6966,0.6978,0.698,0.6972,0.696,0.6969,0.6967,0.6956,0.6981,0.6969,0.6972,0.6986,0.7012,0.7014,0.7017,0.704,0.7045,0.7049,0,0,0,0,0,0,0.6963,0.696,0.6952,0.6974,0.6977,0.6975,0.6987,0.6978,0.6984,0.6981,0.6971,0.6971,0.699,0.699,0.6977,0.7011,0.6994,0.6997,0.7011,0.7016,0.702,0.702,0.6957,0,0,0,0,0,0.6971,0.6982,0.6978,0.6998,0.6999,0.6993,0.6998,0.6991,0.6994,0.6995,0.6993,0.6996,0.7004,0.701,0.7017,0.7041,0.704,0.7052,0.7056,0.706,0.7062,0.7074,0.7079,0.7025,0.7025,0.7025,0,0,0.6989,0.6988,0.6995,0.7003,0.7004,0.7015,0.6994,0.7006,0.7014,0.6997,0.7013,0.7011,0.7013,0.7034,0.7043,0.7034,0.7077,0.7062,0.7065,0.7066,0.7077,0.7082,0.7086,0.7027,0.7026,0.7026,0,0,0.7025,0.7026,0.7042,0.7043,0.7045,0.704,0.7044,0.7043,0.7041,0.7057,0.7044,0.7053,0.7067,0.7069,0.7072,0.7107,0.7097,0.711,0.7131,0.7143,0.7147,0.7151,0.7163,0.7167,0.7113,0.7113,0.7113,0,0.7046,0.7062,0.7052,0.7065,0.7068,0.7052,0.7068,0.707,0.7074,0.7077,0.7067,0.7084,0.7084,0.7104,0.7113,0.7116,0.712,0.711,0.7147,0.7151,0.7154,0.7166,0.717,0.7114,0.7114,0.7114,0.7114,0,0.7087,0.7098,0.7111,0.7115,0.712,0.7134,0.7126,0.7132,0.7124,0.7121,0.7136,0.7136,0.7143,0.7147,0.714,0.7165,0.716,0.7149,0.7132,0.7161,0.7171,0.7176,0.7116,0.7116,0.7115,0.7115,0,0,0.7142,0.7138,0.7143,0.7144,0.7144,0.7152,0.7165,0.7171,0.7176,0.7179,0.719,0.7202,0.7191,0.7194,0.7187,0.7197,0.7224,0.7184,0.7184,0.7192,0.7252,0.726,0.7266,0.7217,0.7218,0.7219,0.7252,0,0.7177,0.72,0.719,0.7213,0.7223,0.7207,0.7218,0.7219,0.7215,0.7222,0.7218,0.7227,0.7212,0.7214,0.7223,0.7219,0.7236,0.7216,0.7227,0.7227,0.7227,0.7271,0.7281,0.7312,0.7256,0.7256,0.7257,0,0.7222,0.7226,0.725,0.7247,0.725,0.7261,0.7265,0.7272,0.7272,0.7269,0.7271,0.7262,0.7274,0.7256,0.7273,0.7259,0.7263,0.7261,0.7262,0.7263,0.7244,0.7274,0.7322,0.7327,0.7263,0.7263,0.7262,0,0.7259,0.727,0.7286,0.7287,0.7284,0.7291,0.729,0.729,0.7293,0.7297,0.7299,0.7304,0.7307,0.7311,0.7302,0.729,0.7319,0.7301,0.7317,0.7317,0.7324,0.7324,0.7374,0.7326,0.7326,0.7326,0.7326,0,0.73,0.7315,0.7302,0.7312,0.7328,0.7316,0.7333,0.733,0.7329,0.7338,0.7324,0.7332,0.732,0.7327,0.7321,0.7335,0.7336,0.7334,0.7332,0.7335,0.7335,0.7338,0.7335,0.7327,0.7327,0.7327,0.7327,0,0.7344,0.7336,0.7352,0.7347,0.7346,0.7358,0.7354,0.7362,0.7357,0.7368,0.737,0.7361,0.7369,0.736,0.7367,0.7363,0.7382,0.7377,0.7382,0.7381,0.7396,0.7395,0.745,0.7456,0.7404,0.7405,0.7405,0,0.7371,0.7382,0.7378,0.7383,0.7382,0.739,0.7393,0.7382,0.7386,0.7386,0.7394,0.74,0.7405,0.7417,0.7412,0.7416,0.7411,0.743,0.7412,0.7415,0.7411,0.7411,0.7412,0.7434,0.7435,0.7435,0.7435,0,0.742,0.7415,0.742,0.7424,0.7428,0.743,0.7432,0.7436,0.7424,0.7429,0.7436,0.7439,0.7446,0.7452,0.7455,0.7453,0.7443,0.7441,0.7445,0.7449,0.7451,0.745,0.7392,0.744,0.744,0.7439,0.7439,0.7439,0.7456,0.7465,0.7463,0.7469,0.7468,0.747,0.7477,0.7472,0.7477,0.7482,0.7474,0.7483,0.7482,0.7484,0.7484,0.7491,0.7483,0.7488,0.749,0.7491,0.7494,0.7449,0.7491,0.7491,0.7491,0.7491,0.7491,0,0.7504,0.7501,0.7507,0.7508,0.7513,0.7501,0.7502,0.7506,0.7514,0.7514,0.7518,0.7525,0.753,0.7525,0.7529,0.7535,0.753,0.7537,0.7536,0.7536,0.7501,0.7497,0.7541,0.7541,0.7541,0.7541,0.7541,0.7541,0.7529,0.7543,0.7537,0.755,0.7548,0.7556,0.7557,0.7558,0.7557,0.7566,0.757,0.7566,0.7563,0.7567,0.7571,0.7569,0.7572,0.758,0.7576,0.7544,0.7539,0.7534,0.753,0.758,0.758,0.7611,0.7611,0.7612]}]]